Accueil
METAR-TAF:

METAR-TAF

Aéroports :

Ontario Municipal Airport

Ontario, Oregon, États-Unis

latitude: 44-01-10N, longitude: 117-00-35W, altitude: 667 m

Observation

Le bulletin a été fait il y a 1 heure et 3 minutes, à 01:53 UTC
Vent 4 kt de ouest/nord-ouest
Température 31°C
Humidité 29%
Pression 1011 hPa
Visibilité: 12.9 km
Ciel clair

METAR: KONO 200153Z AUTO 29004KT 8SM CLR 31/11 A2986 RMK AO2 SLP098 T03110111 TSNO

Heure: 20:56 (02:56 UTC)


TAF: absent

Observations et prévisions météorologiques de plus de 4000 aéroports (messages METAR et TAF).

Les stations disponibles sont représentées par des disques jaunes et rouges sur la carte.

Passer la souris dessus pour voir le nom de la station.

Cliquer dessus pour voir les observations et prévisions météorologiques.

Pour changer de carte: cliquez sur les boutons verts avec une croix noire pour zoomer, sur le bouton vert avec un tiret pour effectuer un zoom arrière, ou sur les flèches vertes pour les cartes adjacentes.


METAR-TAF: